Weather History for KPZQ - November, 2012

Change the Weather History Date:

Sunday, November 25, 2012

  Actual Average (KAPN) Record (KAPN)
Temperature  
Mean Temperature 29 °F 32 °F  
Max Temperature 32 °F 39 °F 59 °F (1984)
Min Temperature 26 °F 26 °F -1 °F (1950)
Degree Days  
Heating Degree Days 36 33  
Month to date heating degree days 710  
Since 1 July heating degree days 1654  
Moisture  
Dew Point 24 °F    
Average Humidity 79    
Maximum Humidity 86    
Minimum Humidity 69    
Precipitation  
Precipitation 0.00 in 0.07 in 1.04 in (1919)
Month to date precipitation 1.77  
Year to date precipitation 26.08  
Snow  
Snow 0.00 in 0.40 in 8.00 in (1919)
Month to date snowfall 5.7  
Since 1 July snowfall 6.1  
Snow Depth -    
Sea Level Pressure  
Sea Level Pressure 29.81 in    
Wind  
Wind Speed 6 mph (SW)    
Max Wind Speed 13 mph    
Max Gust Speed 20 mph    
Visibility 8 miles    
Events Snow    
T = Trace of Precipitation, MM = Missing Value Source: NWS Daily Summary

Daily Weather History Graph

Daily Weather History Graph

Search for Another Location

Airport or City:

Trip Planner

Search our weather history database for the weather conditions in past years. The results will help you decide how hot, cold, wet, or windy it might be!

Date:

Astronomy

Nov. 25, 2012 Rise Set
Actual Time 7:47 AM EST 4:56 PM EST
Civil Twilight 7:14 AM EST 5:29 PM EST
Nautical Twilight 6:38 AM EST 6:06 PM EST
Astronomical Twilight 6:02 AM EST 6:41 PM EST
Moon 3:17 PM EST (11/25) 4:55 AM EST (11/25)
Length of Visible Light 10h 14m
Length of Day
9h 08m
Waxing Gibbous, 93% of the Moon is Illuminated
Nov 25
Waxing Gibbous
Nov 28
Full
Dec 6
Last Quarter
Dec 13
New
Dec 20
First Quarter

Hourly Weather History & Observations

Time (EST) Temp. Windchill Dew Point Humidity Pressure Visibility Wind Dir Wind Speed Gust Speed Precip Events Conditions
12:14 AM 27.1 °F 23.2 °F 18.1 °F 69% 29.94 in 10.0 mi SW 3.5 mph - N/A   Overcast
12:34 AM 27.1 °F - 18.5 °F 70% 29.93 in 10.0 mi Calm Calm - N/A   Overcast
12:54 AM 27.3 °F - 18.7 °F 70% 29.93 in 10.0 mi Calm Calm - N/A   Overcast
1:15 AM 27.1 °F - 19.2 °F 72% 29.92 in 10.0 mi Calm Calm - N/A   Overcast
1:34 AM 27.1 °F - 19.4 °F 73% 29.92 in 10.0 mi Calm Calm - N/A   Overcast
1:55 AM 27.1 °F - 19.4 °F 73% 29.91 in 10.0 mi Calm Calm - N/A   Overcast
2:14 AM 27.1 °F - 19.4 °F 73% 29.90 in 10.0 mi Calm Calm - N/A   Overcast
2:34 AM 27.1 °F 21.8 °F 19.4 °F 73% 29.90 in 10.0 mi SSE 4.6 mph - N/A   Overcast
2:55 AM 27.0 °F 21.6 °F 20.1 °F 75% 29.89 in 5.0 mi South 4.6 mph - N/A Snow Light Snow
3:14 AM 26.6 °F 22.6 °F 21.2 °F 80% 29.89 in 3.0 mi South 3.5 mph - N/A Snow Light Snow
3:34 AM 26.4 °F 22.4 °F 21.9 °F 83% 29.88 in 3.0 mi South 3.5 mph - N/A Snow Light Snow
3:54 AM 26.4 °F 20.9 °F 22.5 °F 85% 29.87 in 2.5 mi South 4.6 mph - N/A Snow Light Snow
4:14 AM 26.4 °F 20.9 °F 22.8 °F 86% 29.85 in 4.0 mi South 4.6 mph - N/A Snow Light Snow
4:35 AM 26.6 °F 21.2 °F 23.0 °F 86% 29.84 in 4.0 mi South 4.6 mph - N/A Snow Light Snow
4:54 AM 26.6 °F 19.1 °F 22.8 °F 86% 29.84 in 3.0 mi South 6.9 mph - N/A Snow Light Snow
5:15 AM 26.6 °F 20.0 °F 22.8 °F 86% 29.83 in 2.5 mi South 5.8 mph - N/A Snow Light Snow
5:34 AM 26.6 °F 18.2 °F 22.8 °F 86% 29.82 in 2.5 mi South 8.1 mph - N/A Snow Light Snow
5:54 AM 26.6 °F 18.2 °F 22.8 °F 86% 29.81 in 4.0 mi South 8.1 mph - N/A Snow Light Snow
6:14 AM 26.6 °F 16.8 °F 22.8 °F 86% 29.80 in 5.0 mi South 10.4 mph - N/A Snow Light Snow
6:34 AM 26.6 °F 16.2 °F 22.6 °F 85% 29.80 in 7.0 mi South 11.5 mph - N/A Snow Light Snow
6:55 AM 26.6 °F 16.2 °F 22.6 °F 85% 29.79 in 3.0 mi South 11.5 mph - N/A Snow Light Snow
7:14 AM 26.6 °F 16.8 °F 22.6 °F 85% 29.79 in 3.0 mi South 10.4 mph - N/A Snow Light Snow
7:34 AM 26.6 °F 16.8 °F 22.6 °F 85% 29.79 in 4.0 mi South 10.4 mph 16.1 mph N/A Snow Light Snow
7:54 AM 26.6 °F 18.2 °F 22.6 °F 85% 29.79 in 2.5 mi SSW 8.1 mph - N/A Snow Light Snow
8:14 AM 26.6 °F 17.5 °F 22.6 °F 85% 29.78 in 2.5 mi South 9.2 mph - N/A Snow Light Snow
8:34 AM 26.4 °F 17.3 °F 22.1 °F 84% 29.77 in 4.0 mi SSW 9.2 mph - N/A Snow Light Snow
8:54 AM 26.6 °F 16.8 °F 22.1 °F 83% 29.77 in 5.0 mi SSW 10.4 mph 17.3 mph N/A Snow Light Snow
9:14 AM 27.1 °F 18.2 °F 22.1 °F 81% 29.77 in 10.0 mi SSW 9.2 mph - N/A Snow Light Snow
9:34 AM 27.5 °F 18.0 °F 22.5 °F 81% 29.77 in 10.0 mi SSW 10.4 mph - N/A   Mostly Cloudy
9:54 AM 27.5 °F 17.4 °F 22.5 °F 81% 29.77 in 10.0 mi SSW 11.5 mph - N/A   Overcast
10:15 AM 27.9 °F 19.1 °F 22.6 °F 81% 29.77 in 10.0 mi SSW 9.2 mph - N/A   Overcast
10:34 AM 28.6 °F 19.9 °F 23.0 °F 80% 29.76 in 10.0 mi SSW 9.2 mph - N/A   Overcast
10:54 AM 29.3 °F 19.6 °F 23.4 °F 78% 29.75 in 10.0 mi SW 11.5 mph - N/A Snow Light Snow
11:15 AM 30.7 °F 22.6 °F 24.1 °F 76% 29.75 in 10.0 mi SW 9.2 mph - N/A   Overcast
11:34 AM 30.6 °F 23.1 °F 24.6 °F 79% 29.74 in 7.0 mi SW 8.1 mph - N/A Snow Light Snow
11:54 AM 30.9 °F 23.5 °F 25.0 °F 79% 29.74 in 10.0 mi SW 8.1 mph - N/A   Overcast
12:15 PM 31.6 °F 24.4 °F 25.3 °F 78% 29.74 in 10.0 mi SW 8.1 mph - N/A   Overcast
12:34 PM 31.8 °F 23.9 °F 25.7 °F 78% 29.73 in 5.0 mi SW 9.2 mph - N/A Snow Light Snow
12:54 PM 32.0 °F 24.8 °F 25.7 °F 78% 29.73 in 10.0 mi WSW 8.1 mph - N/A   Overcast
1:14 PM 32.0 °F 25.6 °F 26.1 °F 79% 29.73 in 10.0 mi SW 6.9 mph - N/A   Overcast
1:34 PM 32.0 °F 24.2 °F 26.2 °F 79% 29.72 in 10.0 mi SW 9.2 mph - N/A   Overcast
1:55 PM 32.0 °F 23.0 °F 26.4 °F 80% 29.72 in 10.0 mi SW 11.5 mph - N/A   Overcast
2:14 PM 32.0 °F 24.2 °F 26.6 °F 80% 29.73 in 10.0 mi WSW 9.2 mph - N/A   Overcast
2:34 PM 32.0 °F 24.8 °F 27.0 °F 82% 29.72 in 7.0 mi WSW 8.1 mph - N/A   Overcast
2:55 PM 32.0 °F 26.4 °F 27.0 °F 82% 29.73 in 10.0 mi West 5.8 mph - N/A   Overcast
3:14 PM 32.0 °F 27.5 °F 26.8 °F 81% 29.73 in 7.0 mi West 4.6 mph - N/A Snow Light Snow
3:34 PM 32.0 °F 27.5 °F 27.3 °F 83% 29.74 in 7.0 mi West 4.6 mph - N/A Snow Light Snow
3:55 PM 31.6 °F 26.0 °F 26.6 °F 82% 29.75 in 10.0 mi WSW 5.8 mph - N/A Snow Light Snow
4:14 PM 31.6 °F 26.0 °F 26.6 °F 82% 29.76 in 7.0 mi WSW 5.8 mph - N/A Snow Light Snow
4:34 PM 31.5 °F 25.8 °F 26.2 °F 81% 29.76 in 10.0 mi WSW 5.8 mph - N/A Snow Light Snow
4:54 PM 31.3 °F 23.9 °F 26.2 °F 82% 29.77 in 5.0 mi WSW 8.1 mph - N/A Snow Light Snow
5:14 PM 31.1 °F 25.4 °F 25.9 °F 81% 29.77 in 10.0 mi WSW 5.8 mph - N/A Snow Light Snow
5:35 PM 30.9 °F 23.5 °F 25.7 °F 81% 29.77 in 10.0 mi SW 8.1 mph - N/A   Overcast
5:54 PM 31.1 °F 24.5 °F 25.3 °F 79% 29.78 in 10.0 mi West 6.9 mph - N/A   Overcast
6:14 PM 31.1 °F 23.7 °F 25.5 °F 80% 29.78 in 10.0 mi West 8.1 mph - N/A   Overcast
6:35 PM 31.3 °F 25.6 °F 25.5 °F 79% 29.79 in 10.0 mi West 5.8 mph - N/A   Overcast
6:54 PM 31.6 °F 25.1 °F 25.7 °F 79% 29.80 in 10.0 mi West 6.9 mph - N/A   Overcast
7:14 PM 31.5 °F 24.2 °F 25.7 °F 79% 29.80 in 10.0 mi West 8.1 mph - N/A   Overcast
7:34 PM 31.8 °F 24.6 °F 25.7 °F 78% 29.81 in 10.0 mi West 8.1 mph - N/A   Overcast
7:54 PM 32.0 °F 25.6 °F 25.5 °F 77% 29.82 in 10.0 mi West 6.9 mph - N/A   Overcast
8:15 PM 32.0 °F 26.4 °F 25.2 °F 76% 29.82 in 10.0 mi West 5.8 mph - N/A   Overcast
8:34 PM 32.0 °F 23.0 °F 24.1 °F 73% 29.83 in 10.0 mi West 11.5 mph 16.1 mph N/A   Overcast
8:54 PM 32.0 °F 23.0 °F 23.7 °F 71% 29.83 in 10.0 mi West 11.5 mph 18.4 mph N/A   Overcast
9:15 PM 31.8 °F 22.8 °F 23.2 °F 70% 29.84 in 10.0 mi West 11.5 mph 19.6 mph N/A   Overcast
9:34 PM 31.5 °F 22.9 °F 22.8 °F 70% 29.84 in 10.0 mi West 10.4 mph 17.3 mph N/A   Overcast
9:54 PM 31.1 °F 23.1 °F 22.8 °F 71% 29.84 in 10.0 mi West 9.2 mph - N/A   Overcast
10:15 PM 30.7 °F 23.3 °F 23.2 °F 74% 29.85 in 10.0 mi WSW 8.1 mph - N/A   Overcast
10:34 PM 30.6 °F 23.8 °F 24.3 °F 77% 29.85 in 10.0 mi West 6.9 mph - N/A   Overcast
10:54 PM 30.6 °F 22.4 °F 23.9 °F 76% 29.85 in 10.0 mi WSW 9.2 mph - N/A   Overcast
11:14 PM 31.1 °F 21.4 °F 23.2 °F 72% 29.86 in 10.0 mi West 12.7 mph 18.4 mph N/A   Overcast
11:34 PM 31.1 °F 21.9 °F 22.5 °F 70% 29.87 in 10.0 mi WNW 11.5 mph 19.6 mph N/A   Overcast
11:55 PM 30.4 °F 20.5 °F 21.7 °F 70% 29.89 in 10.0 mi West 12.7 mph 18.4 mph N/A   Mostly Cloudy